This is the latest recevied weather packets stored in our database for station/object IU3NMQ-10. If no packets are shown the sender has not sent any weather packets the latest 10 day(s).
| Time | Temp. | Humidity | Pressure | Rain* | Wind** | Luminosity | Snow |
|---|---|---|---|---|---|---|---|
| 1777780576 | 13.89° C | 63% | 1016 hPa | - | - | - | - |
| 1777779676 | 14.44° C | 63% | 1016 hPa | - | - | - | - |
| 1777778776 | 14.44° C | 63% | 1016 hPa | - | - | - | - |
| 1777777875 | 14.44° C | 63% | 1016.1 hPa | - | - | - | - |
| 1777776975 | 14.44° C | 63% | 1016.2 hPa | - | - | - | - |
| 1777776075 | 15° C | 62% | 1016.1 hPa | - | - | - | - |
| 1777775175 | 15° C | 62% | 1016.2 hPa | - | - | - | - |
| 1777774275 | 15° C | 61% | 1016.2 hPa | - | - | - | - |
| 1777773375 | 15° C | 61% | 1016.3 hPa | - | - | - | - |
| 1777772475 | 15° C | 61% | 1016.3 hPa | - | - | - | - |
| 1777771575 | 15.56° C | 60% | 1016.2 hPa | - | - | - | - |
| 1777770675 | 16.11° C | 59% | 1016.4 hPa | - | - | - | - |
| 1777769774 | 16.11° C | 59% | 1016.4 hPa | - | - | - | - |
| 1777768874 | 16.67° C | 59% | 1016.5 hPa | - | - | - | - |
| 1777767974 | 16.11° C | 58% | 1016.7 hPa | - | - | - | - |
| 1777767074 | 16.67° C | 57% | 1016.8 hPa | - | - | - | - |
| 1777766214 | 16.67° C | 57% | 1016.9 hPa | - | - | - | - |
| 1777766174 | 16.67° C | 57% | 1016.9 hPa | - | - | - | - |
| 1777765274 | 16.67° C | 57% | 1016.9 hPa | - | - | - | - |
| 1777764374 | 16.67° C | 57% | 1017.1 hPa | - | - | - | - |
| 1777763473 | 17.22° C | 56% | 1017.1 hPa | - | - | - | - |
| 1777762573 | 17.22° C | 54% | 1017.2 hPa | - | - | - | - |
| 1777761673 | 17.22° C | 55% | 1017.2 hPa | - | - | - | - |
| 1777760773 | 17.22° C | 55% | 1017.3 hPa | - | - | - | - |
| 1777759873 | 17.78° C | 54% | 1017.2 hPa | - | - | - | - |
* Rain since midnight (hover to see other rain measurements)
** Current wind speed in m/s (hover to see current wind gust speed)